Regional Weather Roundup
Issued by NWS Grand Forks, ND

Home | Current Version | Previous Version | Graphics & Text | Print | Product List | Glossary On
Versions: 1 2 3 4 5 6 7 8 9 10 11 12 13 14 15 16 17 18 19 20 21 22 23 24 25 26 27 28 29 30 31 32 33 34 35 36 37 38 39 40 41 42 43 44 45 46 47 48 49 50
000
ASUS43 KFGF 022010
RWRFGF
PRAIRIE TO PINES  WEATHER ROUNDUP
NATIONAL WEATHER SERVICE EASTERN NORTH DAKOTA/GRAND FORKS ND
300 PM CDT MON MAY 02 2016

 **SATELLITE DATA USED TO AUGMENT SKY COVER AT AUTOMATED STATIONS**
 *****  WEATHER ACROSS EASTERN NORTH DAKOTA  *****

CITY           SKY/WX    TMP DP  RH WIND       PRES   REMARKS
GRAND FORKS    MOSUNNY   71  30  21 E8        29.97F
GRAND FRKS AFB SUNNY     70  27  20 S5        29.98F
DEVILS LAKE    SUNNY     64  35  34 VRB7      30.01S
FARGO          SUNNY     68  26  20 E3        29.99S
WAHPETON ARPT  CLEAR     68  25  19 S5        30.00F
$$

 ***** WEATHER ACROSS CENTRAL AND WESTERN NORTH DAKOTA  *****

CITY           SKY/WX    TMP DP  RH WIND       PRES   REMARKS
BISMARCK       MOSUNNY   63  44  50 NE5       29.99S
MINOT          MOSUNNY   73  33  23 NE10G22   29.99S
JAMESTOWN      CLOUDY    58  40  51 S12       30.02R
MINOT AFB      MOSUNNY   67  38  34 E6        29.98S
GARRISON         N/A     68  35  29 NE9G20    29.98S
WILLISTON      SUNNY     74  32  21 NE17G31   30.00F
DICKINSON      MOSUNNY   68  32  26 N21G28    29.96S
HETTINGER      CLOUDY    68  34  28 NW22G31   29.98F
$$

 *****  OTHER AIRPORT OBSERVATIONS IN OUR AREA  *****

CITY           SKY/WX    TMP DP  RH WIND       PRES   REMARKS
WALHALLA       FAIR      68  34  28 S5        29.99S
GRAFTON AIRPOR FAIR      68  28  22 VRB5G12   30.00S
VALLEY CITY AR CLOUDY    61  37  41 SW13      30.04S
CANDO          FAIR      66  36  32 S9G18     30.02S
CAVALIER APRT  FAIR      70  34  26 SW3       29.98F
GWINNER        FAIR      64  34  32 SW10      30.02S
SHEYENNE NWR     N/A     65  33  30 W6        29.95S
ROLLA          FAIR      64  32  29 SE12G17   30.02S
 ***** THE ABOVE OBSERVATIONS ARE NON NWS ARE NOT QUALITY
       CONTROLLED AND MAY MIS-REPORT RAIN FOR SNOW...
$$

  *****  WEATHER ACROSS NORTHERN MINNESOTA  *****

CITY           SKY/WX    TMP DP  RH WIND       PRES   REMARKS
FLAG ISLAND    SUNNY     63  27  25 S3        30.00F
WARROAD        SUNNY     63  36  36 NE12      30.01F
ROSEAU         SUNNY     68  23  18 NE6       29.99F
HALLOCK        PTSUNNY   70  25  18 CALM      29.97F
THF RVR FALLS  MOSUNNY   66  25  20 CALM      30.00F
BAUDETTE       SUNNY     66  25  21 SE8       30.01F
WASKISH        SUNNY     63  30  29 W5        30.02S
CROOKSTON      SUNNY     70  27  19 SW6       29.99F
STEPHEN NDAWN    N/A     70  27  19 SE3         N/A
GREENBUSH NDAW   N/A     68  30  24 NE3         N/A
$$
  *****  WEATHER ACROSS CENTRAL AND WEST MINNESOTA  *****

CITY           SKY/WX    TMP DP  RH WIND       PRES   REMARKS
FOSSTON        SUNNY     68  25  19 SW3       29.99F
BEMIDJI        SUNNY     65  25  22 SW3       29.99F
PARK RAPIDS    SUNNY     66  26  22 S8        30.00F
ELBOW LAKE     FAIR      62  30  29 NW3       30.02F
WADENA         MOSUNNY   64  34  32 SE6       30.01F
DETROIT LAKES  SUNNY     64  28  25 SW7       30.02F
MOORHEAD       SUNNY     68  28  22 CALM      30.00S
FERGUS FALLS   SUNNY     66  32  28 CALM      29.98F
MORRIS MN      SUNNY     70  32  24 SE7       30.01F
STAPLES        MOSUNNY   64  25  22 E5        30.01F
$$
  *****  WEATHER ELSEWHERE ACROSS MINNESOTA  *****

CITY           SKY/WX    TMP DP  RH WIND       PRES   REMARKS
DULUTH         MOSUNNY   61  33  35 SE12G18   30.03F
INTRNTL FALLS  SUNNY     66  31  27 NE7       30.00F
ELY            SUNNY     64  25  22 SW10      30.01F
CLOQUET        PTSUNNY   64  27  24 S9        30.02F
WHEATON        MOSUNNY   68  34  28 SW6       30.03S
BRAINERD       CLOUDY    63  30  28 VRB7      30.02F
HIBBING        PTSUNNY   60  29  30 CALM      30.01F
ALEXANDRIA     PTSUNNY   66  28  24 CALM      30.03F
SAINT CLOUD    MOSUNNY   65  30  27 S7        30.03F
MINNEAPOLIS    MOSUNNY   64  32  30 CALM      30.04F
$$

  *****  WEATHER ACROSS SOUTH DAKOTA  *****

CITY           SKY/WX    TMP DP  RH WIND       PRES   REMARKS
SIOUX FALLS    PTSUNNY   61  36  39 VRB3      30.05F
BROOKINGS      PTSUNNY   62  34  35 VRB6      30.03F
WATERTOWN      PTSUNNY   64  32  30 S6        30.02F
HURON          PTSUNNY   64  35  34 S10       30.01F
SISSETON         N/A     66  28  24 SW8       29.99F
ABERDEEN       CLOUDY    57  42  57 NW14      30.03R
MITCHELL       MOSUNNY   63  39  41 S8        30.04F
PIERRE         CLOUDY    56  42  59 N18G29    30.04R
MOBRIDGE       CLOUDY    56  48  74 S9        29.99F
RAPID CITY     MOSUNNY   66  33  29 N23G35    30.05F
$$

  *****  SOME WEATHER IN NEARBY STATES *****

CITY           SKY/WX    TMP DP  RH WIND       PRES   REMARKS
GLASGOW MT     SUNNY     74  36  25 NW13      30.06F
GREAT FALLS MT NOT AVBL
CHEYENNE WY    SUNNY     52  13  21 NW16G22   30.17F
SCOTTSBLUFF NE SUNNY     61  30  31 W13G21    30.11F
OMAHA NE       PTSUNNY   64  39  39 VRB3      30.09F
DES MOINES IA  PTSUNNY   61  37  41 VRB7      30.07S
DAVENPORT IA   CLOUDY    59  40  49 NE9       30.06F
CHICAGO IL     PTSUNNY   57  35  43 NE14      30.04F
EAU CLAIRE WI  PTSUNNY   65  32  29 SW7       30.04F
LA CROSSE WI   PTSUNNY   67  35  30 N6        30.05F
$$

  *****  SOME NATIONAL WEATHER *****

CITY           SKY/WX    TMP DP  RH WIND       PRES   REMARKS
LA GUARDIA NY  CLOUDY    60  49  66 CALM      29.89F
RALEIGH NC     PTSUNNY   83  66  56 SW8       29.91F
ATLANTA GA     PTSUNNY   81  60  48 SW10      29.95F
NEW ORLEANS LA CLOUDY    80  72  76 S6        29.95F
OKLAHOMA CITY  PTSUNNY   62  43  49 NW17G23   30.14F
ALBUQUERQUE NM MOSUNNY   56  32  40 VRB5      30.23F
SALT LAKE CITY FAIR      67  28  23 NW8       30.19F
LOS ANGELES CA FAIR      64  53  67 W17       30.02F
BOISE ID       FAIR      71  27  19 E6        30.15F
SEATTLE WA     FAIR      81  50  33 W5        29.97S
$$

*** WEATHER ACROSS MANITOBA...SASKATCHEWAN AND ONTARIO ***
                ***ONTARIO***

CITY           SKY/WX    TMP DP  RH WIND       PRES   REMARKS
GERALDTON      MOSUNNY   64  30  27 VRB7      29.96F
THUNDER BAY    MOSUNNY   64  30  27 S12G18    30.01F
SIOUX LOOKOUT  CLOUDY    64  30  27 SW7       29.97F
TORONTO        PTSUNNY   54  39  58 E6        29.97F
BIG TROUT LK   PTSUNNY   63  30  29 W9        29.78F
PICKLE LAKE    PTSUNNY   63  28  27 W13       29.91F
DRYDEN         MOSUNNY   64  28  25 SW6       29.98F
KENORA         PTSUNNY   64  27  24 W13G23    30.00F
$$
                *** MANITOBA***

CITY           SKY/WX    TMP DP  RH WIND       PRES   REMARKS
BRANDON        MOSUNNY   66  41  39 E3        30.00F
DAUPHIN        SUNNY     68  37  32 VRB3      29.99F
ISLAND LAKE    PTSUNNY   61  37  41 W13       29.84F
PILOT MOUND      N/A     64  30  27 S7          N/A
THE PAS        PTSUNNY   70  34  26 W15G23    29.92F
THOMPSON       PTSUNNY   66  25  20 NW20G26   29.79S
WINNIPEG       PTSUNNY   70  30  23 S3        29.98F
LYNN LAKE      SUNNY     61  27  27 NW21G31   29.91S
CHURCHILL      PTSUNNY   43  36  75 NW17G23   29.67R
GILLAM         MOSUNNY   55  32  41 W18G26    29.66F
$$
                ***SASKATCHEWAN***

CITY           SKY/WX    TMP DP  RH WIND       PRES   REMARKS
ESTEVAN        MOSUNNY   75  30  19 VRB3      30.00F
KINDERSLEY     MOSUNNY   77  37  24 VRB8G17   30.05F
LLOYDMINSTER   MOSUNNY   79  37  22 VRB2      30.04F
PRINCE ALBERT  PTSUNNY   75  30  19 VRB3      29.98F
REGINA         MOSUNNY   73  30  20 N16       30.02S
YORKTON        SUNNY     66  30  26 VRB8      30.02S
N. BATTLEFORD  SUNNY     79  36  21 N5        30.04F
LA RONGE       PTSUNNY   77  36  22 N12G22    29.96F
SASKATOON      PTSUNNY   77  36  22 N8        30.03F
SWIFT CURRENT  SUNNY     73  32  21 N10G20    30.05F
$$
NOTE: THESE ARE AUTOMATED STATIONS WITH LIMITED QUALITY CONTROL
      "FAIR" INDICATES FEW OR NO CLOUDS BELOW 12,000 FEET WITH NO
      SIGNIFICANT WEATHER AND/OR OBSTRUCTIONS TO VISIBILITY.
      SKY/WX - SKY CONDITION AND SIGNIFICANT WEATHER.
      TMP - AIR TEMPERATURE.    DP   - DEWPOINT TEMPERATURE.
      RH  - RELATIVE HUMIDITY.  PRES - PRESSURE.
      HX  - HEAT INDEX.         WCI  - WIND CHILL INDEX.
$



USA.gov is the U.S. government's official web portal to all federal, state and local government web resources and services.